User: anonymous   Login
Location: NJAA Observatory
(40.6819°N, 74.8979°W)
Time: 16:26:19
(UTC-04:00)
Language:

Iridium 84 - Orbit

View from above orbital plane
View from above orbital plane
View from above satellite
View from above satellite

Ground track
Ground track

The orbit data is extracted from the following two-line orbital elements,

1 25530U 98066D   18110.40548478  .00000164  00000-0  51583-4 0  9992
2 25530  86.3999 221.4888 0002239  98.8187 261.3262 14.34215813 21031
Epoch (UTC): 20 April 2018 09:43:53
Eccentricity: 0.0002239
inclination: 86.3999°
perigee height: 776 km
apogee height: 779 km
right ascension of ascending node: 221.4888°
argument of perigee: 98.8187°
revolutions per day: 14.34215813
mean anomaly at epoch: 261.3262°
orbit number at epoch: 2103

The dashed part of the orbit path shows where the satellite is in the earth's shadow,  

DLR